Main page
METAR-TAF:

METAR-TAF

Airports :

Bahawalpur Airport

Bahawalpur, Pakistan

latitude: 29-20-53N, longitude: 71-43-04E, elevation: 119 m

METAR: missing

Time: 18:48 (13:48 UTC)

Forecast

The report was made 16 hours and 3 minutes ago, at 21:45 UTC
Forecast valid from 20 at 00 UTC to 20 at 18 UTC
Wind 10 kt from the Northeast
Visibility: 3500 m
Scattered clouds at a height of 12000 ft
smoke
Probability 30% :
Temporary
from 20 at 01 UTC to 20 at 04 UTC
Wind kt from the North
Visibility: 1500 m
Few clouds at a height of 12000 ft
smoke

TAF: OPBW 192145Z 2000/2018 05010KT 3500 FU SCT120 TN24/2001Z TX39/2010Z PROB30 TEMPO 2001/2004 00000KT 1500 FU FEW120

Weather observations and forecasts of more than 4000 airports (METAR and TAF reports).

The available stations are represented by yellow and red dots on the map.

Hover mouse over dot to see the name of the station.

Then click to see weather observations and forecasts.

To change the map : click on the green buttons with a black cross to zoom in, on the green button with a dash to zoom out, or on the green arrows for adjacent maps.


METAR-TAF: